{"data":{"norad_id":61545,"epoch":"2026-09-21T04:31:53.562432Z","epoch_age_seconds":132514,"freshness":"FRESH","line1":"1 61545U 24184P   26264.18881438  .00000484  00000+0  25478-4 0  9996","line2":"2 61545  53.1597 182.6910 0001375  65.8659 294.2487 15.34392924108484","mean_motion":15.34392924,"eccentricity":0.0001375,"inclination_deg":53.1597,"raan_deg":182.691,"arg_perigee_deg":65.8659,"mean_anomaly_deg":294.2487,"bstar":2.5478e-5,"rev_number":10848,"period_min":93.848190869264,"perigee_km":461.78365322628,"apogee_km":463.66489007598,"semimajor_km":6840.8612716511,"source":"CELESTRAK","updated_at":"2026-09-22T09:00:49.366964Z"}}